Mineral Point, WI

11:25 AM CDT on March 26, 2017 (GMT -0500)
Iowa County

Weather History for KMRJ - March, 2014

Change the Weather History Date:

Sunday, March 23, 2014

  Actual Average (KLNR) Record (KLNR)
Temperature  
Mean Temperature 22 °F -  
Max Temperature 30 °F 46 °F 66 °F (2012)
Min Temperature 14 °F 27 °F 14 °F (2014)
Degree Days  
Heating Degree Days 43    
Moisture  
Dew Point 6 °F    
Average Humidity 51    
Maximum Humidity 67    
Minimum Humidity 34    
Precipitation  
Precipitation 0.00 in - - ()
Sea Level Pressure  
Sea Level Pressure 30.39 in    
Wind  
Wind Speed 9 mph (NW)    
Max Wind Speed 15 mph    
Max Gust Speed 20 mph    
Visibility 10 miles    
Events Snow    
Averages and records for this station are not official NWS values.
T = Trace of Precipitation, MM = Missing Value Source: NWS Daily Summary

Daily Weather History Graph

Daily Weather History Graph

Search for Another Location

Airport or City:

Trip Planner

Search our weather history database for the weather conditions in past years. The results will help you decide how hot, cold, wet, or windy it might be!

Date:

Astronomy

Mar. 23, 2014 Rise Set
Actual Time 6:58 AM CDT 7:16 PM CDT
Civil Twilight 6:30 AM CDT 7:45 PM CDT
Nautical Twilight 5:57 AM CDT 8:18 PM CDT
Astronomical Twilight 5:23 AM CDT 8:52 PM CDT
Moon 1:40 AM CDT (3/23) 11:33 AM CDT (3/23)
Length of Visible Light 13h 14m
Length of Day
12h 17m
Waning Gibbous, 54% of the Moon is Illuminated
Mar 23
Waning Gibbous
Mar 23
Last Quarter
Mar 30
New
Apr 7
First Quarter
Apr 15
Full

Hourly Weather History & Observations

Time (CDT) Temp. Windchill Dew Point Humidity Pressure Visibility Wind Dir Wind Speed Gust Speed Precip Events Conditions
12:15 AM 21.2 °F 8.9 °F 5.0 °F 50% 30.38 in 10.0 mi NNW 12.7 mph - N/A   Clear
12:35 AM 21.2 °F 8.9 °F 5.0 °F 50% 30.38 in 10.0 mi NNW 12.7 mph 18.4 mph N/A   Clear
12:55 AM 19.4 °F 6.6 °F 5.0 °F 54% 30.39 in 10.0 mi NNW 12.7 mph 18.4 mph N/A   Clear
1:15 AM 19.4 °F 6.6 °F 5.0 °F 54% 30.39 in 10.0 mi NNW 12.7 mph - N/A   Clear
1:35 AM 19.4 °F 5.5 °F 5.0 °F 54% 30.40 in 10.0 mi NNW 15.0 mph - N/A   Clear
1:55 AM 19.4 °F 6.6 °F 5.0 °F 54% 30.40 in 10.0 mi NNW 12.7 mph 17.3 mph N/A   Clear
2:15 AM 19.4 °F 6.6 °F 5.0 °F 54% 30.41 in 10.0 mi NNW 12.7 mph 17.3 mph N/A   Clear
2:35 AM 17.6 °F 5.7 °F 5.0 °F 58% 30.41 in 10.0 mi NNW 10.4 mph - N/A   Clear
2:55 AM 17.6 °F 6.4 °F 5.0 °F 58% 30.41 in 10.0 mi NNW 9.2 mph - N/A   Clear
3:15 AM 17.6 °F 7.3 °F 5.0 °F 58% 30.41 in 10.0 mi NW 8.1 mph - N/A   Clear
3:35 AM 17.6 °F 7.3 °F 5.0 °F 58% 30.41 in 10.0 mi NNW 8.1 mph - N/A   Clear
3:55 AM 17.6 °F 7.3 °F 5.0 °F 58% 30.41 in 10.0 mi NW 8.1 mph - N/A   Clear
4:15 AM 17.6 °F 7.3 °F 5.0 °F 58% 30.42 in 10.0 mi NNW 8.1 mph - N/A   Clear
4:35 AM 17.6 °F 9.3 °F 5.0 °F 58% 30.42 in 10.0 mi NNW 5.8 mph - N/A   Clear
4:55 AM 17.6 °F 8.2 °F 5.0 °F 58% 30.42 in 10.0 mi NNW 6.9 mph - N/A   Clear
5:15 AM 15.8 °F 6.1 °F 5.0 °F 62% 30.42 in 10.0 mi NNW 6.9 mph - N/A   Clear
5:35 AM 15.8 °F 5.1 °F 5.0 °F 62% 30.42 in 10.0 mi NNW 8.1 mph - N/A   Clear
5:55 AM 15.8 °F 7.2 °F 5.0 °F 62% 30.42 in 10.0 mi NNW 5.8 mph - N/A   Clear
6:15 AM 14.0 °F 5.1 °F 5.0 °F 67% 30.42 in 10.0 mi NNW 5.8 mph - N/A   Clear
6:35 AM 14.0 °F 5.1 °F 5.0 °F 67% 30.43 in 10.0 mi NNW 5.8 mph - N/A   Clear
6:55 AM 14.0 °F 6.5 °F 5.0 °F 67% 30.43 in 10.0 mi NNW 4.6 mph - N/A   Clear
7:15 AM 14.0 °F 5.1 °F 5.0 °F 67% 30.43 in 10.0 mi NNW 5.8 mph - N/A   Clear
7:35 AM 15.8 °F 8.6 °F 5.0 °F 62% 30.44 in 10.0 mi NNW 4.6 mph - N/A   Clear
7:55 AM 17.6 °F 7.3 °F 5.0 °F 58% 30.44 in 10.0 mi NNW 8.1 mph - N/A   Clear
8:15 AM 17.6 °F 6.4 °F 3.2 °F 53% 30.44 in 10.0 mi NNW 9.2 mph - N/A   Clear
8:35 AM 17.6 °F 7.3 °F 3.2 °F 53% 30.44 in 10.0 mi NW 8.1 mph - N/A   Clear
8:55 AM 17.6 °F 7.3 °F 3.2 °F 53% 30.44 in 10.0 mi NW 8.1 mph - N/A Snow Light Snow
9:15 AM 19.4 °F 9.5 °F 5.0 °F 54% 30.44 in 10.0 mi NNW 8.1 mph - N/A   Clear
9:35 AM 19.4 °F 11.5 °F 5.0 °F 54% 30.44 in 10.0 mi NNW 5.8 mph - N/A   Clear
9:55 AM 19.4 °F 9.5 °F 3.2 °F 49% 30.44 in 10.0 mi WNW 8.1 mph - N/A   Scattered Clouds
10:15 AM 19.4 °F 8.6 °F 5.0 °F 54% 30.44 in 10.0 mi NW 9.2 mph - N/A   Clear
10:35 AM 21.2 °F 13.6 °F 5.0 °F 50% 30.44 in 10.0 mi NW 5.8 mph - N/A   Clear
10:55 AM 21.2 °F 13.6 °F 5.0 °F 50% 30.43 in 10.0 mi NW 5.8 mph - N/A   Clear
11:15 AM 23.0 °F 13.9 °F 5.0 °F 46% 30.43 in 10.0 mi NW 8.1 mph - N/A   Clear
11:35 AM 23.0 °F 13.9 °F 5.0 °F 46% 30.43 in 10.0 mi NW 8.1 mph - N/A   Clear
11:55 AM 23.0 °F 13.9 °F 5.0 °F 46% 30.42 in 10.0 mi WNW 8.1 mph - N/A   Clear
12:15 PM 23.0 °F 18.4 °F 8.6 °F 54% 30.41 in 10.0 mi WNW 3.5 mph - N/A   Scattered Clouds
12:35 PM 24.8 °F 17.9 °F 5.0 °F 43% 30.41 in 10.0 mi West 5.8 mph - N/A   Mostly Cloudy
12:55 PM 24.8 °F 20.5 °F 5.0 °F 43% 30.41 in 10.0 mi West 3.5 mph - N/A   Mostly Cloudy
1:15 PM 26.6 °F 15.2 °F 6.8 °F 43% 30.39 in 10.0 mi West 13.8 mph - N/A   Scattered Clouds
1:35 PM 26.6 °F 17.5 °F 8.6 °F 47% 30.39 in 10.0 mi NW 9.2 mph 16.1 mph N/A   Scattered Clouds
1:55 PM 26.6 °F 16.8 °F 5.0 °F 40% 30.38 in 10.0 mi West 10.4 mph - N/A   Scattered Clouds
2:15 PM 28.4 °F 22.2 °F 6.8 °F 40% 30.38 in 10.0 mi NW 5.8 mph 18.4 mph N/A   Scattered Clouds
2:35 PM 28.4 °F 19.1 °F 8.6 °F 43% 30.36 in 10.0 mi West 10.4 mph 17.3 mph N/A   Scattered Clouds
2:55 PM 28.4 °F 22.2 °F 10.4 °F 47% 30.36 in 10.0 mi NW 5.8 mph - N/A   Scattered Clouds
3:15 PM 28.4 °F 21.2 °F 6.8 °F 40% 30.36 in 10.0 mi NNW 6.9 mph 16.1 mph N/A   Scattered Clouds
3:35 PM 28.4 °F 21.2 °F 6.8 °F 40% 30.35 in 10.0 mi WNW 6.9 mph 18.4 mph N/A   Scattered Clouds
3:55 PM 30.2 °F 21.9 °F 6.8 °F 37% 30.34 in 10.0 mi NW 9.2 mph - N/A   Scattered Clouds
4:15 PM 30.2 °F 21.3 °F 8.6 °F 40% 30.34 in 10.0 mi WNW 10.4 mph 19.6 mph N/A   Mostly Cloudy
4:35 PM 28.4 °F 19.1 °F 6.8 °F 40% 30.34 in 10.0 mi West 10.4 mph - N/A   Scattered Clouds
4:55 PM 30.2 °F 21.3 °F 8.6 °F 40% 30.34 in 10.0 mi West 10.4 mph 17.3 mph N/A   Clear
5:15 PM 28.4 °F 18.5 °F 8.6 °F 43% 30.34 in 10.0 mi West 11.5 mph - N/A   Clear
5:35 PM 28.4 °F 17.5 °F 5.0 °F 37% 30.34 in 10.0 mi West 13.8 mph - N/A   Clear
5:55 PM 28.4 °F 18.0 °F 5.0 °F 37% 30.34 in 10.0 mi West 12.7 mph - N/A   Clear
6:15 PM 28.4 °F 19.1 °F 5.0 °F 37% 30.34 in 10.0 mi West 10.4 mph - N/A   Clear
6:35 PM 28.4 °F 20.4 °F 3.2 °F 34% 30.34 in 10.0 mi West 8.1 mph - N/A   Clear
6:55 PM 26.6 °F 16.8 °F 5.0 °F 40% 30.33 in 10.0 mi West 10.4 mph - N/A   Clear
7:15 PM 26.6 °F 18.2 °F 5.0 °F 40% 30.33 in 10.0 mi WNW 8.1 mph - N/A   Clear
7:35 PM 26.6 °F 19.1 °F 5.0 °F 40% 30.33 in 10.0 mi WNW 6.9 mph - N/A   Clear
7:55 PM 24.8 °F 17.9 °F 6.8 °F 46% 30.33 in 10.0 mi WNW 5.8 mph - N/A   Clear
8:15 PM 23.0 °F 17.0 °F 8.6 °F 54% 30.32 in 10.0 mi WNW 4.6 mph - N/A   Clear
8:35 PM 23.0 °F 14.7 °F 8.6 °F 54% 30.33 in 10.0 mi WNW 6.9 mph - N/A   Clear
8:55 PM 23.0 °F 15.8 °F 8.6 °F 54% 30.33 in 10.0 mi NW 5.8 mph - N/A   Clear
9:15 PM 23.0 °F 17.0 °F 8.6 °F 54% 30.33 in 10.0 mi NW 4.6 mph - N/A   Clear
9:35 PM 23.0 °F 17.0 °F 8.6 °F 54% 30.33 in 10.0 mi NW 4.6 mph - N/A   Clear
9:55 PM 21.2 °F 16.4 °F 8.6 °F 58% 30.34 in 10.0 mi NW 3.5 mph - N/A   Clear
10:15 PM 21.2 °F 16.4 °F 8.6 °F 58% 30.34 in 10.0 mi NNW 3.5 mph - N/A   Clear
10:35 PM 21.2 °F 13.6 °F 8.6 °F 58% 30.34 in 10.0 mi NNW 5.8 mph - N/A   Clear
10:55 PM 21.2 °F 16.4 °F 10.4 °F 63% 30.34 in 10.0 mi NW 3.5 mph - N/A   Clear
11:15 PM 21.2 °F - 10.4 °F 63% 30.35 in 10.0 mi Calm Calm - N/A   Clear
11:35 PM 21.2 °F - 8.6 °F 58% 30.34 in 10.0 mi Calm Calm - N/A   Clear
11:55 PM 19.4 °F 14.3 °F 8.6 °F 63% 30.34 in 10.0 mi NW 3.5 mph - N/A   Clear